CW2840 Weather Reports


time (UTC)temp
F
wind
direction
speed
knots
gust
knots
rain 1hr
in
rain 24hr
in
rain mn
in
humidity
%
barometer
mb
20260510081731 70 94 0.0 1.7 0.00 0.01 0.00 90 1011.1
20260510080232 70 94 0.0 1.7 0.00 0.01 0.00 90 1011.2
20260510074730 71 94 0.0 1.7 0.00 0.01 0.00 90 1010.9
20260510073921 70 94 0.0 1.7 0.00 0.01 0.00 90 1010.9
20260510071729 70 94 0.0 1.7 0.00 0.01 0.00 89 1010.9
20260510070231 70 94 0.0 1.7 0.00 0.01 0.00 89 1011.1
20260510064729 70 94 0.9 1.7 0.00 0.01 0.00 89 1011.3
20260510063229 70 94 0.0 1.7 0.00 0.01 0.00 89 1011.2
20260510062428 71 94 0.0 0.0 0.00 0.01 0.00 89 1011.2
20260510060229 71 94 0.0 0.0 0.00 0.01 0.00 89 1011.4
20260510054727 71 94 0.0 1.7 0.00 0.01 0.00 89 1011.5
20260510053927 71 94 0.0 1.7 0.00 0.01 0.00 88 1011.4
20260510051726 71 94 0.0 1.7 0.00 0.01 0.00 88 1011.4
20260510050229 71 94 0.9 2.6 0.00 0.01 0.00 88 1011.5
20260510045426 71 94 0.0 1.7 0.00 0.01 0.01 87 1011.5
20260510043925 71 94 0.9 1.7 0.00 0.01 0.01 87 1011.6
20260510041727 71 94 0.0 1.7 0.00 0.01 0.01 86 1011.9
20260510040226 71 94 0.0 2.6 0.00 0.01 0.01 86 1011.8
20260510034724 71 94 1.7 2.6 0.01 0.00 0.01 85 1011.6
20260510033226 72 94 1.7 4.3 0.01 0.00 0.01 84 1011.7
20260510031725 72 94 1.7 6.1 0.01 0.00 0.01 83 1011.8
20260510030226 73 212 0.0 7.8 0.01 0.00 0.00 80 1012.0
20260510024724 75 111 3.5 15.6 0.00 0.00 0.00 73 1012.0
20260510023225 76 109 6.1 15.6 0.00 0.00 0.00 71 1011.4
20260510021723 80 103 8.7 13.9 0.00 0.00 0.00 70 1010.8
20260510020224 81 138 4.3 6.1 0.00 0.00 0.00 67 1010.0
20260510014722 81 188 1.7 4.3 0.00 0.00 0.00 66 1009.3
20260510014621 83 223 2.6 9.6 0.00 0.00 0.00 66 1009.3
20260510011722 84 127 0.9 2.6 0.00 0.00 0.00 68 1008.9
20260510010923 85 127 0.9 2.6 0.00 0.00 0.00 67 1008.6
20260510005426 85 127 0.9 1.7 0.00 0.00 0.00 68 1008.5
20260510003222 85 127 0.0 1.7 0.00 0.00 0.00 69 1008.3
20260510001720 85 127 0.0 1.7 0.00 0.00 0.00 69 1008.1
20260510000222 85 127 0.9 2.6 0.00 0.00 0.00 68 1008.0
20260509235415 85 127 0.0 1.7 0.00 0.00 0.00 67 1008.0
20260509233915 85 127 0.0 1.7 0.00 0.00 0.00 67 1008.1
20260509231719 86 127 0.0 4.3 0.00 0.00 0.00 65 1008.0
20260509230221 86 127 0.0 1.7 0.00 0.00 0.00 65 1007.8
20260509224718 87 127 0.0 2.6 0.00 0.00 0.00 63 1007.8
20260509223220 88 127 2.6 6.1 0.00 0.00 0.00 62 1007.9
20260509221718 89 128 3.5 6.1 0.00 0.00 0.00 61 1007.5
20260509220219 88 131 1.7 4.3 0.00 0.00 0.00 62 1007.5
20260509214717 88 131 2.6 4.3 0.00 0.00 0.00 63 1007.5
20260509213218 87 133 0.9 4.3 0.00 0.00 0.00 62 1007.7
20260509211716 88 135 1.7 6.1 0.00 0.00 0.00 63 1007.7
20260509210217 88 142 2.6 4.3 0.00 0.00 0.00 62 1007.9
20260509204715 86 157 0.0 6.1 0.00 0.00 0.00 64 1008.2
20260509203218 87 195 0.9 4.3 0.00 0.00 0.00 65 1008.2
20260509202420 86 285 1.7 6.1 0.00 0.00 0.00 62 1008.4
20260509200216 87 313 0.9 4.3 0.00 0.00 0.00 63 1008.8
20260509194715 86 226 0.0 6.1 0.00 0.00 0.00 66 1008.8
20260509193217 86 266 3.5 6.1 0.00 0.00 0.00 67 1009.0
20260509191714 86 176 1.7 6.1 0.00 0.00 0.00 68 1009.1
20260509190215 85 166 2.6 6.1 0.00 0.00 0.00 70 1009.3
20260509184714 85 155 2.6 6.1 0.00 0.00 0.00 69 1009.5
20260509183213 84 212 0.9 4.3 0.00 0.00 0.00 71 1009.8
20260509183104 82 212 0.0 6.1 0.00 0.00 0.00 73 1010.0
20260509180918 83 210 0.9 4.3 0.00 0.00 0.00 71 1010.1
20260509174712 83 161 1.7 6.1 0.00 0.00 0.00 73 1010.4
20260509173213 82 330 1.7 7.8 0.00 0.00 0.00 72 1010.4
20260509171711 82 157 0.9 4.3 0.00 0.00 0.00 74 1010.3
20260509170213 83 157 2.6 4.3 0.00 0.00 0.00 74 1010.2
20260509164711 81 164 0.0 4.3 0.00 0.00 0.00 78 1010.2
20260509163211 80 164 1.7 4.3 0.00 0.00 0.00 80 1010.2
20260509161710 79 117 0.0 4.3 0.00 0.00 0.00 80 1010.4
20260509160211 79 145 0.9 2.6 0.00 0.00 0.00 82 1010.6
20260509155404 78 145 1.7 2.6 0.00 0.00 0.00 83 1010.7
20260509153210 78 140 1.7 2.6 0.00 0.00 0.00 86 1010.8
20260509151709 77 140 0.0 2.6 0.00 0.00 0.00 87 1010.8
20260509150907 76 140 1.7 4.3 0.00 0.00 0.00 88 1010.6
20260509144708 76 140 0.0 2.6 0.00 0.00 0.00 89 1010.5
20260509143209 75 140 0.0 2.6 0.00 0.00 0.00 89 1010.4
20260509141709 75 140 0.9 1.7 0.00 0.00 0.00 90 1010.2
20260509140209 75 140 1.7 2.6 0.00 0.00 0.00 90 1010.0
20260509134707 75 140 0.9 2.6 0.00 0.00 0.00 90 1010.3
20260509133210 74 140 0.0 1.7 0.00 0.00 0.00 91 1010.6
20260509131707 74 140 0.9 1.7 0.00 0.00 0.00 91 1010.6
20260509130207 74 140 0.0 1.7 0.00 0.00 0.00 91 1010.6
20260509124704 73 140 0.9 1.7 0.00 0.00 0.00 91 1010.7
20260509123213 73 140 0.9 2.6 0.00 0.00 0.00 91 1010.7
20260509122401 73 140 0.0 4.3 0.00 0.00 0.00 91 1010.5
20260509120206 73 140 1.7 2.6 0.00 0.00 0.00 91 1010.1
20260509114704 73 140 0.0 1.7 0.00 0.00 0.00 91 1010.0
20260509113854 73 140 0.0 1.7 0.00 0.00 0.00 91 1009.8
20260509111704 73 140 0.0 2.6 0.00 0.00 0.00 91 1009.8
20260509110208 73 140 0.9 2.6 0.00 0.00 0.00 90 1010.2
20260509104703 73 140 1.7 4.3 0.00 0.00 0.00 91 1010.4
20260509103208 73 140 1.7 2.6 0.00 0.00 0.00 90 1010.3
20260509101705 73 140 1.7 2.6 0.00 0.00 0.00 90 1009.9
20260509100205 73 140 0.9 4.3 0.00 0.00 0.00 90 1009.3
20260509094703 73 141 0.0 1.7 0.00 0.00 0.00 90 1009.2
20260509093206 73 141 0.0 1.7 0.00 0.00 0.00 90 1009.6
20260509091703 73 141 0.0 1.7 0.00 0.00 0.00 90 1009.8
20260509090918 73 141 0.0 0.0 0.00 0.00 0.00 90 1009.9
20260509084703 73 141 0.0 1.7 0.00 0.00 0.00 90 1010.0
20260509083855 73 141 0.0 2.6 0.00 0.00 0.00 90 1010.0